Location: Blackwall
(51.5097°N, 0.0016°W)
Time: 00:38:46
(UTC+00:00)

CZ-4B R/B - Pass Details

Date: 15 May 2026
Orbit: 442 x 557 km, 97.8° (Epoch: 9 June)

Event Time Altitude Azimuth Distance (km) Brightness Sun altitude
Exits shadow 20:50:42 12° 143° (SE) 1,475 4.3 -8.6°
Maximum altitude 20:53:42 47° 70° (ENE) 621 2.9 -9.0°
Drops below altitude 10° 20:57:05 10° 356° (N) 1,643 6.1 -9.3°
Sets 20:59:13 0° 351° (N) 2,545 7.3 -9.6°
